Flag for U.S.A. Weather past 2 weeks in Greensboro, North Carolina, U.S.A.

Now
46 °F

Clear.


Feels Like: 46 °F
Forecast: 43 / 71 °F
Wind: No wind

Location: Piedmont Triad International Airport

Current Time: Oct 25, 2014 at 2:23:44 AM

Latest Report: Oct 25, 2014 at 1:54 AM


Visibility: 10 mi

Pressure: 29.98 "Hg

Humidity: 79%

Dew point: 40 °F

Location of GreensboroLocation

Historic Weather in Greensboro — Graph

°F

Greensboro temperature yesterday

Maximum temperature yesterday: 68 °F (at 3:54 PM)
Minimum temperature yesterday: 44 °F (at 5:54 AM)
Average temperature yesterday: 55 °F

Past Weeks' High & Low Weather Summary

 TemperatureHumidityPressure
High82 °F (Oct 10, 2:54 PM)100% (Oct 11, 12:54 AM)30.26 "Hg (Oct 11, 12:54 AM)
Low41 °F (Oct 22, 5:54 AM)34% (Oct 19, 4:54 PM)29.75 "Hg (Oct 18, 4:54 AM)
Average60 °F74%29.98 "Hg
* Reported Oct 10 12:54 AM — Oct 25 12:54 AM, Greensboro, Weather by CustomWeather, © 2014

Note: Actual official high and low records may vary slightly from our data, if they occured in-between our weather recording intervals... More about our weather records

Advertising

Greensboro weather history for previous 24 hours

 ConditionsComfort  
Time TempWeatherWind HumidityBarometerVisibility
12:54 AM
Oct 25
48 °FClear.No wind77%29.98 "Hg10 mi
11:54 PM
Oct 24
49 °FPassing clouds.No wind77%29.98 "Hg10 mi
10:54 PM51 °FClear.No wind74%29.99 "Hg10 mi
9:54 PM54 °FPassing clouds.3 mph62%29.99 "Hg10 mi
8:54 PM56 °FPartly cloudy.No wind58%29.98 "Hg10 mi
7:54 PM57 °FPartly cloudy.No wind55%29.97 "Hg10 mi
6:54 PM61 °FBroken clouds.3 mph48%29.96 "Hg10 mi
5:54 PM63 °FPartly sunny.5 mph45%29.96 "Hg10 mi
4:54 PM68 °FPartly sunny.3 mph35%29.96 "Hg10 mi
3:54 PM68 °FPartly sunny.6 mph38%29.96 "Hg10 mi
2:54 PM66 °FBroken clouds.3 mph39%29.97 "Hg10 mi
1:54 PM65 °FPartly sunny.6 mph39%29.99 "Hg10 mi
12:54 PM65 °FPartly sunny.7 mph37%30.02 "Hg10 mi
11:54 AM63 °FPartly sunny.3 mph43%30.05 "Hg10 mi
10:54 AM60 °FPartly sunny.5 mph49%30.05 "Hg10 mi
9:54 AM55 °FPartly sunny.6 mph62%30.06 "Hg10 mi
8:54 AM50 °FPartly sunny.No wind71%30.05 "Hg10 mi
7:54 AM45 °FPassing clouds.5 mph82%30.03 "Hg10 mi
6:54 AM44 °FPassing clouds.5 mph85%30.02 "Hg10 mi
5:54 AM44 °FPassing clouds.3 mph85%30.02 "Hg10 mi
4:54 AM45 °FPassing clouds.No wind82%30.01 "Hg10 mi
3:54 AM46 °FPassing clouds.No wind79%30.02 "Hg10 mi
2:54 AM48 °FPassing clouds.3 mph74%30.02 "Hg10 mi
Weather by CustomWeather, © 2014

See weather overviewHow to use our weather pages